TimePST,TemperatureF,Dew PointF,Humidity,Sea Level PressureIn,VisibilityMPH,Wind Direction,Wind SpeedMPH,Gust SpeedMPH,PrecipitationIn,Events,Conditions,WindDirDegrees,DateUTC
12:53 AM,43.0,42.1,97,30.04,10.0,Calm,Calm,-,N/A,,Clear,0,2012-11-15 08:53:00
1:53 AM,41.0,39.9,96,30.04,9.0,Calm,Calm,-,N/A,,Clear,0,2012-11-15 09:53:00
2:53 AM,39.9,39.0,97,30.04,9.0,Calm,Calm,-,N/A,,Clear,0,2012-11-15 10:53:00
3:53 AM,41.0,41.0,100,30.03,7.0,Calm,Calm,-,N/A,,Clear,0,2012-11-15 11:53:00
4:53 AM,41.0,39.9,96,30.02,10.0,Calm,Calm,-,N/A,,Clear,0,2012-11-15 12:53:00
5:53 AM,43.0,41.0,93,30.02,10.0,Calm,Calm,-,N/A,,Clear,0,2012-11-15 13:53:00
6:53 AM,39.9,39.9,100,30.04,10.0,Calm,Calm,-,N/A,,Clear,0,2012-11-15 14:53:00
7:53 AM,44.1,42.1,93,30.04,10.0,Calm,Calm,-,N/A,,Clear,0,2012-11-15 15:53:00
8:53 AM,54.0,46.9,77,30.06,10.0,NNE,3.5,-,N/A,,Clear,30,2012-11-15 16:53:00
9:53 AM,57.0,45.0,64,30.06,10.0,Variable,4.6,-,N/A,,Clear,0,2012-11-15 17:53:00
10:53 AM,61.0,46.0,58,30.06,10.0,North,4.6,-,N/A,,Clear,360,2012-11-15 18:53:00
11:53 AM,62.1,46.0,56,30.03,10.0,NNE,3.5,-,N/A,,Clear,30,2012-11-15 19:53:00
12:53 PM,64.0,46.0,52,30.01,10.0,Variable,3.5,-,N/A,,Clear,0,2012-11-15 20:53:00
1:53 PM,64.9,46.9,52,29.99,10.0,Calm,Calm,-,N/A,,Clear,0,2012-11-15 21:53:00
2:53 PM,66.0,46.0,48,29.97,10.0,Calm,Calm,-,N/A,,Clear,0,2012-11-15 22:53:00
3:53 PM,64.0,46.9,54,29.98,10.0,Calm,Calm,-,N/A,,Clear,0,2012-11-15 23:53:00
4:53 PM,59.0,46.9,64,29.98,8.0,Calm,Calm,-,N/A,,Clear,0,2012-11-16 00:53:00
5:53 PM,60.1,46.0,60,29.99,9.0,South,4.6,-,N/A,,Clear,190,2012-11-16 01:53:00
6:53 PM,59.0,48.0,67,29.99,10.0,South,4.6,-,N/A,,Clear,190,2012-11-16 02:53:00
7:53 PM,57.0,46.9,69,30.01,10.0,SW,5.8,-,N/A,,Clear,220,2012-11-16 03:53:00
8:53 PM,55.0,46.9,74,30.03,10.0,South,3.5,-,N/A,,Clear,170,2012-11-16 04:53:00
9:53 PM,53.1,46.0,77,30.02,10.0,SW,3.5,-,N/A,,Clear,230,2012-11-16 05:53:00
10:53 PM,46.9,44.1,90,30.01,10.0,Calm,Calm,-,N/A,,Clear,0,2012-11-16 06:53:00
11:53 PM,48.9,45.0,86,30.01,10.0,Calm,Calm,-,N/A,,Clear,0,2012-11-16 07:53:00